Regional Weather Roundup
Issued by NWS

Home | Current Version | Previous Version | Text Only | Print | Product List | Glossary Off
Versions: 1 2 3 4 5 6 7 8 9 10 11 12 13 14 15 16 17 18 19 20 21 22 23 24 25 26 27 28 29 30 31 32 33 34 35 36 37 38 39 40 41 42 43 44 45 46 47 48 49 50

000
ASUS45 KABQ 222010
RWRNM
NEW MEXICO REGIONAL WEATHER ROUNDUP
NATIONAL WEATHER SERVICE ALBUQUERQUE NM
200 PM MDT FRI JUL 22 2016

NOTE: "FAIR" MEANS FEW OR NO CLOUDS BELOW 12,000 FEET AGL WITH NO
       SIGNIFICANT WEATHER OR OBSTRUCTIONS TO VISION.

      THIS PRODUCT IS RELEASED AS TWO VERSIONS.  ONE VERSION NEAR
      THE TOP OF THE HOUR CONTAINING PRELIMINARY DATA FROM ALBUQUERQUE
      AND OTHER STATIONS.  A FINAL VERSION WITH ADDITIONAL DATA IS
      ISSUED ABOUT 10 MINUTES AFTER THE HOUR.

NMZ501-503-504-510>518-222100-
NORTHWEST PLATEAU/NORTHCENTRAL MOUNTAINS

CITY           SKY/WX    TMP DP  RH WIND       PRES   REMARKS
FARMINGTON     FAIR      91  46  21 SW12      30.26F
LOS ALAMOS     FAIR      85  42  21 W5        30.39F
SANTA FE       FAIR      95  41  15 SW14G22   30.31F
TAOS           FAIR      90  39  17 W10G20    30.38F
ANGEL FIRE     FAIR      75  43  31 S8        30.51F

$$
NMZ402-403-502-505>509-222100-
WESTCENTRAL MOUNTAINS/SOUTHWEST MOUNTAINS

CITY           SKY/WX    TMP DP  RH WIND       PRES   REMARKS
GALLUP         FAIR      88  44  21 VRB6      30.35F
GRANTS         FAIR      90  39  16 W6        30.36F
SILVER CITY    FAIR      94  46  19 SE6       30.24F

$$
NMZ407-409-411-412-222100-
SOUTHERN DESERTS

CITY           SKY/WX    TMP DP  RH WIND       PRES   REMARKS
LORDSBURG      FAIR      95  50  21 NW5       30.16F
DEMING         FAIR     100  46  16 MISG      30.14F HX  96
LAS CRUCES     FAIR      97  42  15 SE8       30.17F
HOLLOMAN AFB   FAIR      98  48  18 VRB5      30.11F
ALAMOGORDO     FAIR      97  46  17 E3        30.14F
T OR C         FAIR      96  44  16 CALM      30.19F

$$
NMZ519>523-222100-
CENTRAL VALLEYS/CENTRAL HIGHLANDS

CITY           SKY/WX    TMP DP  RH WIND       PRES   REMARKS
ALBUQUERQUE    FAIR      95  43  16 VRB6      30.24F
DOUBLE EAGLE   MOSUNNY   93  45  18 VRB7      30.29F
MORIARTY ARPT  FAIR      91  34  13 NW6       30.31F
CLINES CORNERS PTSUNNY   90  40  17 N9        30.38F
BELEN          FAIR      95  40  14 CALM      30.23F
SOCORRO        FAIR      96  40  14 NE7       30.19F

$$
NMZ524>526-539-540-222100-
SOUTHCENTRAL MOUNTAINS

CITY           SKY/WX    TMP DP  RH WIND       PRES   REMARKS
RUIDOSO          N/A     84  41  21 SE13      30.39F

$$
NMZ527>531-222100-
NORTHEAST HIGHLANDS/NORTHEAST PLAINS

CITY           SKY/WX    TMP DP  RH WIND       PRES   REMARKS
LAS VEGAS      PTSUNNY   89  38  16 VRB5G18   30.34F
RATON          FAIR      93  41  16 NW20G28   30.27F
CLAYTON        FAIR     100  45  15 S17       30.17F HX  96

$$
NMZ532>537-222100-
EASTCENTRAL PLAINS

CITY           SKY/WX    TMP DP  RH WIND       PRES   REMARKS
TUCUMCARI      FAIR     103  45  14 S14G24    30.11F HX  99
CANNON AFB     FAIR      97  50  20 S10G18    30.17F
CLOVIS AIRPORT FAIR      97  52  21 S10G18    30.18F

$$
NMZ028-029-538-222100-
SOUTHEAST PLAINS

CITY           SKY/WX    TMP DP  RH WIND       PRES   REMARKS
ROSWELL        FAIR     101  46  15 SE14      30.11F HX  97
ARTESIA        FAIR      99  50  19 SE8G21    30.12F HX  95
CARLSBAD       FAIR      98  49  18 S13G21    30.09F HX  95
HOBBS          SUNNY     95  45  17 SE16G24   30.16F


$$




USA.gov is the U.S. government's official web portal to all federal, state and local government web resources and services.